TimeEST,TemperatureF,Dew PointF,Humidity,Sea Level PressureIn,VisibilityMPH,Wind Direction,Wind SpeedMPH,Gust SpeedMPH,PrecipitationIn,Events,Conditions,WindDirDegrees,DateUTC
12:52 AM,45.0,26.1,48,30.01,10.0,SSW,12.7,-,N/A,,Clear,200,2013-01-20 05:52:00
1:52 AM,45.0,25.0,46,29.99,10.0,SSW,12.7,-,N/A,,Clear,200,2013-01-20 06:52:00
2:52 AM,45.0,25.0,46,29.96,10.0,SSW,16.1,23.0,N/A,,Clear,200,2013-01-20 07:52:00
3:52 AM,45.0,26.1,48,29.94,10.0,SSW,13.8,20.7,N/A,,Clear,200,2013-01-20 08:52:00
4:52 AM,44.1,26.1,49,29.92,10.0,SSW,11.5,20.7,N/A,,Clear,200,2013-01-20 09:52:00
5:52 AM,43.0,26.1,51,29.91,10.0,SSW,12.7,18.4,N/A,,Clear,210,2013-01-20 10:52:00
6:06 AM,44.6,26.6,49,29.90,10.0,SSW,13.8,20.7,N/A,,Partly Cloudy,210,2013-01-20 11:06:00
6:52 AM,43.0,26.1,51,29.91,10.0,SSW,11.5,21.9,N/A,,Partly Cloudy,210,2013-01-20 11:52:00
7:52 AM,43.0,27.0,53,29.91,10.0,SSW,11.5,-,N/A,,Partly Cloudy,200,2013-01-20 12:52:00
8:52 AM,46.0,28.0,50,29.91,10.0,SSW,11.5,20.7,N/A,,Partly Cloudy,210,2013-01-20 13:52:00
9:52 AM,48.9,28.9,46,29.91,10.0,SW,17.3,25.3,N/A,,Partly Cloudy,220,2013-01-20 14:52:00
10:52 AM,53.1,30.0,41,29.91,10.0,SW,18.4,25.3,N/A,,Partly Cloudy,230,2013-01-20 15:52:00
11:52 AM,55.0,30.9,40,29.87,10.0,SW,18.4,25.3,N/A,,Partly Cloudy,230,2013-01-20 16:52:00
12:52 PM,57.9,30.0,35,29.85,10.0,SW,16.1,28.8,N/A,,Partly Cloudy,230,2013-01-20 17:52:00
1:52 PM,59.0,30.0,33,29.85,10.0,WSW,17.3,31.1,N/A,,Partly Cloudy,250,2013-01-20 18:52:00
2:52 PM,59.0,30.0,33,29.85,10.0,WSW,20.7,27.6,N/A,,Partly Cloudy,250,2013-01-20 19:52:00
3:52 PM,59.0,30.0,33,29.87,10.0,WSW,10.4,-,N/A,,Partly Cloudy,250,2013-01-20 20:52:00
4:52 PM,54.0,30.9,41,29.89,10.0,West,5.8,-,N/A,,Partly Cloudy,260,2013-01-20 21:52:00
5:52 PM,51.1,28.0,41,29.93,10.0,WNW,8.1,-,N/A,,Clear,300,2013-01-20 22:52:00
6:52 PM,51.1,16.0,25,29.98,10.0,NW,17.3,-,N/A,,Clear,310,2013-01-20 23:52:00
7:52 PM,46.9,21.0,36,30.01,10.0,WNW,10.4,-,N/A,,Clear,300,2013-01-21 00:52:00
8:52 PM,46.0,14.0,28,30.03,10.0,NW,13.8,19.6,N/A,,Clear,320,2013-01-21 01:52:00
9:52 PM,43.0,14.0,31,30.06,10.0,NW,8.1,-,N/A,,Clear,320,2013-01-21 02:52:00
10:52 PM,41.0,12.0,31,30.07,10.0,NNW,6.9,-,N/A,,Clear,330,2013-01-21 03:52:00
11:52 PM,41.0,16.0,36,30.07,10.0,NNW,6.9,-,N/A,,Clear,330,2013-01-21 04:52:00